QPF
0.00 0.00 0.00 0.01 0.01 0.01 0.01 0.01 0.01 0.01 0.00 0.00 0.01 0.01 0.01 0.01 0.00 0.00 0.00 0.00 0.00 0.00 0.00 0.00 0.00 0.00 0.00 0.00 0.00 0.00 0.00 0.01 0.01 0.01 0.02 0.03 0.04 0.05 0.04 0.04 0.04 0.05 0.07 0.11
0.00 0.00 0.00 0.00 0.01 0.01 0.01 0.00 0.00 0.00 0.00 0.00 0.00 0.01 0.01 0.01 0.01 0.00 0.00 0.00 0.00 0.00 0.00 0.00 0.00 0.00 0.00 0.00 0.00 0.00 0.00 0.01 0.01 0.01 0.02 0.03 0.03 0.04 0.04 0.05 0.05 0.05 0.07 0.08
0.00 0.00 0.00 0.00 0.00 0.01 0.00 0.00 0.00 0.00 0.00 0.00 0.01 0.01 0.01 0.02 0.01 0.01 0.00 0.00 0.00 0.00 0.00 0.00 0.00 0.00 0.00 0.00 0.00 0.00 0.00 0.01 0.01 0.02 0.01 0.02 0.03 0.05 0.07 0.07 0.05 0.03 0.06 0.05
0.00 0.00 0.00 0.00 0.00 0.00 0.00 0.00 0.00 0.00 0.00 0.02 0.02 0.01 0.01 0.01 0.01 0.01 0.01 0.00 0.00 0.00 0.00 0.00 0.00 0.01 0.01 0.00 0.01 0.01 0.01 0.01 0.01 0.01 0.01 0.01 0.02 0.03 0.05 0.06 0.03 0.02 0.04 0.03
0.00 0.00 0.00 0.00 0.00 0.00 0.00 0.00 0.00 0.00 0.00 0.01 0.01 0.01 0.01 0.02 0.02 0.02 0.02 0.01 0.00 0.00 0.00 0.00 0.01 0.02 0.01 0.01 0.01 0.03 0.02 0.01 0.02 0.02 0.01 0.00 0.01 0.01 0.02 0.02 0.01 0.02 0.02 0.02
0.00 0.00 0.00 0.00 0.00 0.00 0.00 0.00 0.00 0.00 0.00 0.00 0.01 0.01 0.01 0.01 0.02 0.01 0.02 0.01 0.01 0.01 0.00 0.00 0.00 0.01 0.01 0.00 0.01 0.01 0.01 0.02 0.02 0.01 0.01 0.00 0.01 0.01 0.00 0.00 0.01 0.01 0.01 0.02
0.00 0.00 0.00 0.00 0.00 0.00 0.00 0.00 0.01 0.01 0.01 0.01 0.01 0.01 0.01 0.01 0.01 0.01 0.02 0.02 0.01 0.01 0.01 0.00 0.00 0.01 0.00 0.01 0.01 0.01 0.01 0.02 0.02 0.01 0.01 0.01 0.01 0.01 0.01 0.01 0.01 0.01 0.01 0.01
0.00 0.00 0.00 0.00 0.00 0.00 0.00 0.00 0.01 0.02 0.02 0.01 0.03 0.02 0.01 0.01 0.01 0.02 0.03 0.01 0.01 0.00 0.00 0.00 0.01 0.01 0.02 0.01 0.01 0.01 0.01 0.01 0.01 0.02 0.02 0.02 0.01 0.01 0.01 0.01 0.01 0.01 0.01 0.01
0.01 0.00 0.00 0.00 0.00 0.00 0.00 0.00 0.00 0.01 0.01 0.02 0.03 0.03 0.02 0.03 0.08 0.07 0.03 0.01 0.01 0.00 0.00 0.01 0.01 0.01 0.03 0.02 0.02 0.02 0.02 0.02 0.02 0.02 0.02 0.02 0.02 0.01 0.01 0.02 0.01 0.01 0.01 0.01
0.00 0.00 0.00 0.00 0.00 0.00 0.00 0.00 0.00 0.01 0.02 0.02 0.01 0.03 0.06 0.03 0.07 0.04 0.02 0.01 0.01 0.01 0.01 0.01 0.01 0.01 0.02 0.03 0.05 0.08 0.07 0.04 0.04 0.03 0.02 0.01 0.01 0.02 0.02 0.02 0.02 0.01 0.01 0.02
0.00 0.00 0.00 0.00 0.00 0.00 0.00 0.00 0.00 0.01 0.02 0.02 0.01 0.02 0.02 0.01 0.02 0.02 0.02 0.01 0.01 0.01 0.01 0.01 0.01 0.01 0.02 0.05 0.06 0.05 0.04 0.05 0.06 0.05 0.02 0.01 0.01 0.02 0.02 0.02 0.01 0.01 0.01 0.02
0.00 0.00 0.00 0.00 0.00 0.00 0.00 0.00 0.00 0.00 0.01 0.01 0.02 0.01 0.01 0.01 0.01 0.01 0.01 0.01 0.01 0.01 0.02 0.01 0.01 0.01 0.02 0.05 0.04 0.01 0.01 0.02 0.03 0.03 0.03 0.02 0.01 0.02 0.02 0.01 0.02 0.02 0.02 0.02
0.00 0.00 0.00 0.00 0.00 0.00 0.00 0.00 0.00 0.00 0.01 0.01 0.02 0.01 0.01 0.01 0.01 0.01 0.01 0.01 0.01 0.01 0.02 0.01 0.01 0.04 0.04 0.02 0.02 0.01 0.01 0.01 0.01 0.02 0.02 0.03 0.04 0.04 0.02 0.02 0.03 0.03 0.02 0.03
0.00 0.00 0.00 0.00 0.00 0.00 0.00 0.00 0.00 0.00 0.00 0.01 0.02 0.01 0.02 0.02 0.01 0.01 0.01 0.01 0.02 0.01 0.01 0.01 0.02 0.05 0.04 0.03 0.03 0.02 0.02 0.02 0.02 0.01 0.02 0.03 0.06 0.08 0.09 0.05 0.03 0.03 0.03 0.04
0.00 0.00 0.00 0.00 0.00 0.00 0.00 0.00 0.00 0.00 0.00 0.01 0.01 0.01 0.01 0.01 0.01 0.01 0.01 0.02 0.02 0.02 0.01 0.01 0.02 0.03 0.04 0.04 0.05 0.04 0.03 0.02 0.02 0.02 0.02 0.04 0.08 0.11 0.11 0.07 0.03 0.03 0.04 0.04
0.00 0.00 0.00 0.00 0.00 0.00 0.00 0.00 0.00 0.00 0.00 0.01 0.01 0.01 0.01 0.02 0.02 0.01 0.01 0.01 0.01 0.01 0.01 0.01 0.03 0.04 0.06 0.05 0.04 0.04 0.04 0.03 0.02 0.03 0.04 0.05 0.06 0.05 0.05 0.05 0.04 0.02 0.02 0.03
0.00 0.00 0.00 0.00 0.00 0.00 0.00 0.00 0.00 0.00 0.01 0.02 0.03 0.03 0.02 0.01 0.01 0.01 0.01 0.01 0.01 0.01 0.01 0.02 0.04 0.03 0.02 0.01 0.02 0.03 0.04 0.05 0.03 0.03 0.05 0.07 0.07 0.07 0.07 0.05 0.03 0.02 0.02 0.03
0.00 0.00 0.00 0.00 0.00 0.00 0.00 0.00 0.00 0.01 0.04 0.07 0.07 0.03 0.01 0.01 0.01 0.01 0.01 0.03 0.04 0.02 0.01 0.01 0.00 0.00 0.00 0.00 0.01 0.02 0.03 0.06 0.08 0.07 0.07 0.07 0.08 0.10 0.09 0.05 0.03 0.02 0.02 0.02
0.00 0.00 0.00 0.00 0.01 0.01 0.00 0.00 0.00 0.01 0.03 0.03 0.02 0.01 0.01 0.01 0.01 0.01 0.02 0.03 0.02 0.01 0.01 0.01 0.01 0.00 0.00 0.01 0.01 0.01 0.02 0.04 0.08 0.12 0.10 0.08 0.06 0.06 0.05 0.03 0.02 0.02 0.02 0.01
0.00 0.00 0.01 0.01 0.01 0.01 0.01 0.00 0.00 0.01 0.01 0.01 0.01 0.01 0.01 0.01 0.01 0.01 0.01 0.01 0.01 0.00 0.01 0.01 0.01 0.01 0.01 0.01 0.01 0.01 0.01 0.02 0.04 0.08 0.13 0.11 0.08 0.06 0.05 0.04 0.04 0.03 0.02 0.01
0.01 0.01 0.01 0.01 0.02 0.02 0.01 0.01 0.00 0.01 0.02 0.01 0.01 0.01 0.02 0.02 0.02 0.02 0.01 0.01 0.01 0.00 0.00 0.01 0.01 0.01 0.01 0.01 0.02 0.02 0.03 0.03 0.03 0.04 0.05 0.09 0.10 0.08 0.06 0.06 0.05 0.05 0.04 0.03
0.01 0.01 0.01 0.02 0.01 0.01 0.01 0.01 0.01 0.02 0.02 0.02 0.02 0.01 0.01 0.01 0.02 0.01 0.01 0.01 0.01 0.01 0.01 0.01 0.01 0.02 0.02 0.02 0.02 0.02 0.03 0.03 0.03 0.04 0.05 0.05 0.06 0.09 0.08 0.07 0.07 0.06 0.06 0.06
0.01 0.02 0.02 0.01 0.01 0.01 0.01 0.02 0.01 0.02 0.03 0.02 0.01 0.01 0.01 0.01 0.01 0.01 0.01 0.01 0.02 0.02 0.02 0.01 0.02 0.02 0.02 0.03 0.04 0.03 0.03 0.04 0.04 0.05 0.07 0.08 0.09 0.10 0.08 0.07 0.07 0.07 0.08 0.07
0.02 0.01 0.02 0.02 0.01 0.01 0.01 0.01 0.02 0.02 0.01 0.01 0.00 0.00 0.00 0.01 0.01 0.02 0.01 0.02 0.03 0.03 0.03 0.03 0.04 0.04 0.04 0.04 0.05 0.06 0.06 0.06 0.06 0.05 0.04 0.04 0.05 0.06 0.06 0.06 0.05 0.05 0.05 0.04
0.03 0.02 0.02 0.02 0.02 0.01 0.01 0.01 0.01 0.01 0.01 0.00 0.00 0.00 0.00 0.00 0.02 0.03 0.02 0.01 0.02 0.05 0.06 0.04 0.05 0.04 0.04 0.03 0.02 0.02 0.02 0.02 0.02 0.02 0.01 0.01 0.02 0.02 0.03 0.03 0.03 0.04 0.04 0.02
0.03 0.04 0.05 0.04 0.03 0.02 0.02 0.02 0.02 0.01 0.01 0.00 0.00 0.00 0.00 0.00 0.01 0.03 0.05 0.03 0.02 0.03 0.03 0.03 0.03 0.03 0.02 0.02 0.02 0.02 0.03 0.03 0.03 0.03 0.02 0.02 0.02 0.02 0.02 0.02 0.02 0.03 0.03 0.03
MSLP
1005.10 1006.01 1006.66 1007.03 1007.18 1007.18 1007.13 1007.13 1007.26 1007.53 1007.93 1008.40 1008.87 1009.29 1009.61 1009.80 1009.90 1009.93 1009.94 1009.97 1010.06 1010.21 1010.42 1010.64 1010.87 1011.06 1011.22 1011.36 1011.50 1011.66 1011.87 1012.15 1012.50 1012.89 1013.29 1013.68 1014.01 1014.28 1014.48 1014.62 1014.73 1014.84 1014.98 1015.16
1006.07 1006.77 1007.17 1007.29 1007.21 1007.05 1006.92 1006.92 1007.11 1007.48 1007.98 1008.54 1009.06 1009.47 1009.74 1009.85 1009.85 1009.78 1009.73 1009.74 1009.83 1010.02 1010.27 1010.55 1010.81 1011.02 1011.17 1011.28 1011.38 1011.51 1011.71 1012.01 1012.39 1012.84 1013.31 1013.76 1014.13 1014.41 1014.60 1014.69 1014.73 1014.77 1014.83 1014.96
1006.68 1007.16 1007.31 1007.21 1006.97 1006.73 1006.60 1006.68 1006.98 1007.49 1008.11 1008.73 1009.26 1009.62 1009.77 1009.73 1009.57 1009.37 1009.22 1009.19 1009.30 1009.54 1009.88 1010.25 1010.60 1010.87 1011.05 1011.17 1011.25 1011.37 1011.56 1011.86 1012.27 1012.77 1013.29 1013.79 1014.21 1014.52 1014.68 1014.74 1014.73 1014.70 1014.70 1014.77
1006.88 1007.13 1007.09 1006.84 1006.53 1006.30 1006.27 1006.51 1007.00 1007.67 1008.41 1009.07 1009.56 1009.79 1009.75 1009.48 1009.09 1008.69 1008.41 1008.30 1008.42 1008.73 1009.17 1009.67 1010.14 1010.52 1010.77 1010.93 1011.04 1011.15 1011.34 1011.65 1012.08 1012.61 1013.18 1013.72 1014.18 1014.51 1014.68 1014.73 1014.68 1014.60 1014.56 1014.58
1006.70 1006.75 1006.56 1006.25 1005.97 1005.86 1006.03 1006.50 1007.22 1008.08 1008.93 1009.61 1009.99 1010.03 1009.72 1009.16 1008.47 1007.82 1007.35 1007.14 1007.23 1007.60 1008.16 1008.80 1009.41 1009.92 1010.29 1010.52 1010.67 1010.81 1011.00 1011.31 1011.75 1012.30 1012.90 1013.48 1013.98 1014.34 1014.53 1014.58 1014.53 1014.43 1014.36 1014.35
1006.24 1006.13 1005.85 1005.55 1005.39 1005.49 1005.92 1006.67 1007.65 1008.71 1009.65 1010.30 1010.55 1010.34 1009.72 1008.81 1007.79 1006.85 1006.15 1005.80 1005.85 1006.25 1006.90 1007.68 1008.45 1009.10 1009.58 1009.91 1010.12 1010.28 1010.49 1010.81 1011.25 1011.81 1012.43 1013.04 1013.58 1013.97 1014.20 1014.27 1014.24 1014.15 1014.08 1014.06
1005.67 1005.42 1005.10 1004.87 1004.88 1005.22 1005.94 1006.99 1008.22 1009.44 1010.45 1011.05 1011.13 1010.66 1009.73 1008.46 1007.10 1005.86 1004.93 1004.44 1004.41 1004.82 1005.54 1006.42 1007.32 1008.10 1008.70 1009.11 1009.38 1009.59 1009.81 1010.13 1010.58 1011.14 1011.77 1012.41 1012.98 1013.41 1013.68 1013.80 1013.81 1013.75 1013.70 1013.71
1005.12 1004.76 1004.44 1004.30 1004.49 1005.08 1006.07 1007.37 1008.80 1010.15 1011.18 1011.70 1011.61 1010.91 1009.68 1008.12 1006.46 1004.97 1003.84 1003.20 1003.10 1003.48 1004.23 1005.18 1006.15 1007.02 1007.70 1008.19 1008.51 1008.75 1008.99 1009.32 1009.77 1010.33 1010.97 1011.63 1012.22 1012.70 1013.02 1013.19 1013.25 1013.24 1013.23 1013.27
1004.73 1004.30 1003.98 1003.93 1004.27 1005.05 1006.23 1007.71 1009.26 1010.66 1011.67 1012.10 1011.87 1010.97 1009.53 1007.75 1005.90 1004.24 1002.97 1002.23 1002.06 1002.41 1003.14 1004.10 1005.09 1005.99 1006.70 1007.21 1007.57 1007.83 1008.08 1008.42 1008.87 1009.44 1010.09 1010.76 1011.38 1011.90 1012.27 1012.49 1012.61 1012.65 1012.69 1012.77
1004.59 1004.10 1003.79 1003.80 1004.23 1005.11 1006.39 1007.93 1009.50 1010.87 1011.81 1012.14 1011.79 1010.78 1009.24 1007.38 1005.45 1003.73 1002.42 1001.63 1001.42 1001.71 1002.40 1003.29 1004.24 1005.10 1005.79 1006.29 1006.63 1006.90 1007.16 1007.50 1007.96 1008.53 1009.19 1009.88 1010.52 1011.07 1011.48 1011.75 1011.92 1012.02 1012.10 1012.22
1004.73 1004.21 1003.91 1003.94 1004.39 1005.27 1006.52 1007.98 1009.46 1010.71 1011.54 1011.77 1011.36 1010.32 1008.80 1006.98 1005.14 1003.49 1002.23 1001.47 1001.23 1001.47 1002.07 1002.86 1003.69 1004.44 1005.04 1005.48 1005.79 1006.03 1006.29 1006.64 1007.10 1007.69 1008.35 1009.04 1009.70 1010.26 1010.70 1011.01 1011.21 1011.36 1011.49 1011.65
1005.13 1004.62 1004.33 1004.34 1004.74 1005.53 1006.63 1007.92 1009.19 1010.25 1010.92 1011.06 1010.62 1009.64 1008.25 1006.61 1004.96 1003.50 1002.39 1001.71 1001.49 1001.67 1002.15 1002.79 1003.45 1004.05 1004.51 1004.84 1005.08 1005.29 1005.54 1005.89 1006.36 1006.95 1007.61 1008.30 1008.95 1009.51 1009.96 1010.29 1010.52 1010.70 1010.86 1011.05
1005.74 1005.28 1005.00 1004.98 1005.28 1005.89 1006.77 1007.79 1008.79 1009.60 1010.09 1010.13 1009.70 1008.85 1007.66 1006.30 1004.94 1003.75 1002.85 1002.30 1002.12 1002.25 1002.59 1003.05 1003.51 1003.91 1004.20 1004.41 1004.56 1004.72 1004.95 1005.29 1005.76 1006.34 1006.99 1007.66 1008.29 1008.83 1009.27 1009.59 1009.84 1010.03 1010.22 1010.44
1006.51 1006.13 1005.87 1005.81 1005.98 1006.39 1006.99 1007.69 1008.37 1008.91 1009.19 1009.14 1008.75 1008.05 1007.12 1006.08 1005.06 1004.19 1003.53 1003.14 1003.01 1003.08 1003.30 1003.56 1003.81 1003.99 1004.11 1004.18 1004.24 1004.35 1004.55 1004.88 1005.34 1005.89 1006.51 1007.14 1007.72 1008.22 1008.61 1008.92 1009.16 1009.36 1009.56 1009.80
1007.37 1007.09 1006.87 1006.77 1006.81 1007.00 1007.31 1007.69 1008.04 1008.29 1008.38 1008.25 1007.90 1007.37 1006.70 1005.99 1005.32 1004.76 1004.35 1004.12 1004.03 1004.06 1004.14 1004.22 1004.27 1004.26 1004.21 1004.15 1004.13 1004.19 1004.37 1004.67 1005.10 1005.62 1006.18 1006.73 1007.24 1007.67 1008.00 1008.26 1008.47 1008.66 1008.87 1009.12
1008.25 1008.08 1007.90 1007.77 1007.69 1007.68 1007.73 1007.79 1007.85 1007.84 1007.74 1007.54 1007.24 1006.86 1006.44 1006.02 1005.67 1005.39 1005.20 1005.10 1005.06 1005.05 1005.01 1004.94 1004.82 1004.65 1004.47 1004.32 1004.24 1004.25 1004.41 1004.68 1005.07 1005.52 1006.00 1006.45 1006.85 1007.18 1007.43 1007.62 1007.79 1007.95 1008.15 1008.40
1009.11 1009.01 1008.88 1008.71 1008.53 1008.35 1008.17 1007.98 1007.78 1007.56 1007.31 1007.05 1006.79 1006.54 1006.32 1006.16 1006.06 1006.01 1006.00 1006.01 1006.00 1005.95 1005.84 1005.65 1005.41 1005.13 1004.87 1004.66 1004.54 1004.54 1004.67 1004.91 1005.23 1005.60 1005.97 1006.31 1006.58 1006.78 1006.92 1007.02 1007.12 1007.25 1007.42 1007.65
1009.88 1009.82 1009.69 1009.49 1009.22 1008.91 1008.55 1008.16 1007.77 1007.40 1007.05 1006.75 1006.53 1006.38 1006.32 1006.35 1006.43 1006.55 1006.68 1006.76 1006.78 1006.70 1006.54 1006.29 1005.98 1005.65 1005.36 1005.14 1005.02 1005.01 1005.13 1005.33 1005.58 1005.85 1006.10 1006.29 1006.42 1006.48 1006.50 1006.50 1006.52 1006.58 1006.71 1006.90
1010.51 1010.44 1010.28 1010.02 1009.68 1009.25 1008.77 1008.26 1007.75 1007.27 1006.87 1006.57 1006.38 1006.32 1006.38 1006.54 1006.75 1006.99 1007.19 1007.32 1007.36 1007.28 1007.10 1006.82 1006.51 1006.19 1005.91 1005.71 1005.62 1005.63 1005.73 1005.89 1006.07 1006.24 1006.35 1006.40 1006.38 1006.29 1006.18 1006.08 1006.00 1005.99 1006.06 1006.20
1010.97 1010.83 1010.59 1010.26 1009.84 1009.33 1008.77 1008.19 1007.62 1007.12 1006.71 1006.43 1006.29 1006.31 1006.45 1006.69 1006.99 1007.29 1007.54 1007.71 1007.76 1007.69 1007.51 1007.26 1006.97 1006.69 1006.47 1006.32 1006.26 1006.29 1006.39 1006.51 1006.62 1006.68 1006.68 1006.59 1006.43 1006.21 1005.98 1005.77 1005.61 1005.52 1005.51 1005.57
1011.25 1010.98 1010.64 1010.21 1009.71 1009.14 1008.54 1007.94 1007.37 1006.89 1006.51 1006.29 1006.21 1006.29 1006.50 1006.80 1007.15 1007.48 1007.75 1007.93 1008.00 1007.95 1007.80 1007.59 1007.35 1007.14 1006.97 1006.88 1006.87 1006.92 1007.01 1007.09 1007.14 1007.11 1007.00 1006.80 1006.53 1006.21 1005.88 1005.58 1005.33 1005.17 1005.08 1005.06
1011.33 1010.91 1010.44 1009.92 1009.35 1008.74 1008.13 1007.55 1007.02 1006.59 1006.29 1006.14 1006.14 1006.28 1006.54 1006.88 1007.24 1007.59 1007.86 1008.05 1008.12 1008.09 1007.97 1007.81 1007.63 1007.47 1007.37 1007.33 1007.35 1007.41 1007.49 1007.53 1007.52 1007.43 1007.24 1006.97 1006.62 1006.23 1005.83 1005.47 1005.17 1004.93 1004.77 1004.67
1011.23 1010.67 1010.08 1009.46 1008.84 1008.22 1007.63 1007.09 1006.64 1006.30 1006.09 1006.01 1006.09 1006.29 1006.58 1006.93 1007.30 1007.64 1007.91 1008.08 1008.16 1008.14 1008.05 1007.91 1007.77 1007.66 1007.60 1007.58 1007.62 1007.68 1007.74 1007.75 1007.70 1007.57 1007.34 1007.02 1006.64 1006.22 1005.80 1005.40 1005.06 1004.77 1004.55 1004.37
1010.97 1010.30 1009.62 1008.94 1008.29 1007.68 1007.13 1006.67 1006.31 1006.06 1005.94 1005.96 1006.09 1006.33 1006.65 1007.00 1007.36 1007.67 1007.91 1008.06 1008.13 1008.10 1008.02 1007.90 1007.78 1007.68 1007.62 1007.61 1007.64 1007.68 1007.71 1007.71 1007.63 1007.48 1007.24 1006.92 1006.54 1006.14 1005.72 1005.33 1004.97 1004.65 1004.37 1004.13
1010.57 1009.84 1009.11 1008.41 1007.77 1007.21 1006.74 1006.36 1006.10 1005.95 1005.92 1006.00 1006.18 1006.44 1006.76 1007.09 1007.41 1007.68 1007.88 1008.00 1008.03 1007.98 1007.88 1007.75 1007.62 1007.51 1007.44 1007.40 1007.40 1007.41 1007.41 1007.38 1007.30 1007.16 1006.94 1006.65 1006.32 1005.95 1005.57 1005.20 1004.84 1004.51 1004.20 1003.90
1010.04 1009.30 1008.58 1007.92 1007.34 1006.86 1006.48 1006.20 1006.04 1005.98 1006.02 1006.15 1006.35 1006.61 1006.90 1007.19 1007.45 1007.66 1007.80 1007.86 1007.85 1007.77 1007.63 1007.47 1007.31 1007.16 1007.04 1006.97 1006.92 1006.90 1006.88 1006.84 1006.77 1006.64 1006.47 1006.24 1005.97 1005.66 1005.34 1005.00 1004.66 1004.32 1003.98 1003.65
Thickness
5841 5822 5811 5818 5827 5827 5826 5819 5814 5824 5842 5832 5820 5817 5821 5827 5825 5820 5817 5814 5812 5810 5812 5812 5811 5809 5806 5802 5799 5796 5793 5791 5789 5785 5781 5778 5776 5776 5775 5775 5774 5773 5771 5769
5817 5812 5831 5839 5840 5834 5827 5817 5816 5827 5841 5831 5817 5815 5822 5826 5825 5825 5822 5817 5815 5811 5810 5810 5810 5809 5806 5803 5801 5798 5796 5793 5791 5788 5785 5782 5780 5778 5777 5776 5775 5774 5772 5770
5808 5824 5843 5838 5832 5826 5824 5819 5820 5820 5830 5830 5815 5801 5810 5820 5827 5828 5827 5825 5821 5817 5812 5811 5810 5809 5807 5804 5803 5801 5798 5795 5793 5791 5787 5784 5781 5778 5776 5775 5774 5774 5773 5771
5817 5835 5837 5830 5828 5829 5815 5837 5837 5830 5812 5797 5806 5774 5798 5812 5815 5822 5824 5823 5822 5822 5818 5814 5812 5810 5809 5808 5807 5804 5800 5797 5795 5792 5788 5783 5778 5774 5774 5775 5775 5775 5774 5772
5813 5831 5828 5823 5832 5839 5832 5847 5840 5831 5812 5796 5797 5779 5789 5808 5805 5815 5823 5826 5825 5825 5823 5819 5817 5815 5814 5812 5809 5806 5802 5798 5796 5793 5790 5785 5781 5778 5777 5776 5774 5774 5773 5772
5821 5839 5839 5837 5847 5849 5848 5838 5826 5812 5796 5774 5790 5780 5781 5801 5812 5820 5826 5830 5829 5828 5826 5823 5821 5817 5814 5812 5810 5806 5802 5798 5796 5794 5791 5787 5783 5780 5776 5774 5772 5772 5772 5771
5804 5822 5839 5847 5832 5838 5834 5800 5774 5770 5759 5766 5792 5785 5789 5820 5831 5831 5830 5832 5834 5832 5827 5822 5819 5816 5813 5811 5809 5806 5801 5797 5796 5794 5791 5788 5785 5781 5778 5775 5773 5771 5769 5769
5779 5786 5822 5837 5831 5821 5820 5803 5769 5755 5752 5763 5783 5781 5803 5834 5839 5840 5839 5837 5835 5831 5829 5824 5822 5819 5816 5812 5810 5806 5802 5798 5796 5794 5791 5789 5786 5782 5779 5777 5775 5773 5771 5770
5776 5784 5827 5840 5846 5834 5815 5804 5803 5776 5767 5756 5767 5788 5810 5831 5830 5832 5832 5832 5831 5830 5829 5826 5824 5821 5818 5814 5811 5809 5804 5799 5796 5794 5791 5788 5786 5783 5780 5778 5776 5774 5772 5771
5792 5783 5811 5833 5840 5836 5830 5817 5789 5770 5751 5744 5760 5774 5783 5807 5815 5822 5824 5826 5828 5828 5828 5826 5824 5822 5821 5818 5815 5812 5806 5800 5798 5795 5792 5789 5786 5784 5781 5778 5775 5773 5771 5770
5796 5778 5790 5807 5809 5809 5815 5808 5789 5770 5766 5747 5742 5763 5810 5815 5821 5822 5824 5828 5829 5828 5827 5825 5824 5823 5821 5818 5815 5811 5806 5801 5798 5795 5792 5789 5785 5783 5780 5777 5774 5772 5770 5768
5789 5774 5767 5789 5817 5829 5821 5809 5791 5769 5761 5757 5751 5768 5825 5824 5827 5827 5827 5829 5830 5829 5827 5825 5823 5821 5818 5815 5813 5809 5805 5801 5798 5795 5791 5788 5785 5782 5778 5776 5773 5771 5769 5767
5784 5764 5751 5762 5783 5805 5806 5807 5798 5783 5766 5754 5750 5770 5818 5821 5822 5825 5826 5826 5825 5824 5823 5822 5819 5817 5815 5813 5811 5808 5804 5801 5798 5794 5790 5786 5783 5780 5777 5775 5773 5770 5767 5765
5788 5758 5750 5747 5761 5781 5787 5797 5799 5782 5759 5756 5763 5776 5798 5806 5811 5816 5820 5822 5821 5820 5819 5817 5815 5813 5813 5811 5808 5805 5802 5800 5796 5792 5788 5784 5781 5779 5776 5774 5771 5768 5765 5762
5770 5752 5759 5767 5781 5788 5788 5792 5795 5786 5777 5768 5772 5777 5790 5801 5809 5814 5817 5818 5816 5814 5814 5813 5811 5809 5808 5806 5804 5803 5799 5796 5793 5788 5784 5781 5779 5777 5773 5770 5768 5765 5762 5759
5752 5745 5750 5756 5775 5780 5779 5788 5791 5790 5786 5781 5780 5779 5797 5805 5810 5810 5811 5812 5808 5808 5810 5811 5809 5806 5804 5802 5801 5799 5796 5794 5791 5785 5781 5779 5776 5772 5769 5766 5763 5760 5757 5755
5734 5734 5728 5731 5755 5761 5752 5773 5781 5780 5783 5781 5770 5778 5792 5792 5796 5799 5802 5805 5804 5805 5807 5806 5806 5804 5802 5800 5799 5796 5794 5791 5787 5782 5778 5775 5771 5767 5764 5762 5758 5755 5753 5750
5727 5721 5713 5717 5732 5720 5748 5778 5782 5775 5774 5778 5779 5784 5789 5789 5793 5798 5802 5801 5802 5803 5803 5803 5803 5801 5800 5798 5796 5793 5789 5785 5782 5778 5774 5771 5767 5763 5760 5757 5754 5751 5748 5746
5729 5718 5706 5700 5704 5719 5748 5766 5769 5762 5756 5770 5772 5777 5782 5786 5786 5784 5792 5795 5796 5800 5800 5799 5800 5798 5795 5792 5790 5786 5782 5778 5775 5771 5768 5766 5763 5759 5755 5752 5749 5747 5743 5740
5718 5714 5701 5695 5697 5699 5729 5759 5773 5762 5739 5761 5766 5768 5772 5774 5758 5764 5783 5788 5789 5792 5793 5793 5793 5791 5787 5785 5783 5778 5774 5770 5767 5766 5763 5761 5758 5754 5750 5747 5745 5742 5738 5735
5692 5691 5687 5686 5689 5701 5730 5752 5759 5728 5726 5752 5759 5761 5764 5760 5760 5768 5776 5779 5782 5784 5785 5786 5784 5780 5779 5778 5775 5769 5765 5763 5762 5760 5757 5754 5751 5748 5746 5742 5739 5736 5733 5729
5675 5673 5674 5675 5676 5688 5726 5734 5727 5725 5740 5746 5750 5754 5755 5757 5759 5762 5766 5769 5771 5772 5774 5776 5773 5770 5770 5768 5764 5759 5757 5757 5756 5753 5750 5747 5744 5742 5740 5736 5733 5730 5726 5721
5668 5672 5672 5675 5681 5701 5716 5720 5727 5731 5731 5736 5740 5745 5748 5748 5748 5751 5753 5756 5760 5762 5762 5763 5762 5759 5758 5757 5754 5749 5750 5750 5748 5745 5741 5739 5737 5733 5731 5728 5725 5721 5718 5715
5663 5672 5669 5671 5682 5695 5704 5711 5717 5722 5725 5729 5733 5735 5738 5736 5737 5739 5740 5743 5746 5749 5750 5751 5748 5746 5745 5746 5745 5744 5743 5742 5739 5735 5732 5730 5727 5724 5723 5721 5717 5714 5711 5708
5652 5658 5656 5660 5673 5683 5692 5697 5704 5710 5715 5718 5721 5724 5725 5726 5727 5729 5729 5731 5733 5736 5738 5738 5736 5735 5735 5737 5736 5736 5734 5732 5728 5726 5724 5722 5720 5717 5715 5713 5711 5709 5708 5706
5643 5644 5643 5647 5661 5665 5672 5683 5693 5697 5700 5704 5707 5708 5712 5714 5715 5718 5718 5720 5722 5723 5725 5726 5726 5725 5726 5726 5726 5726 5725 5723 5719 5716 5714 5713 5711 5710 5707 5704 5702 5702 5701 5700